{"data":{"norad_id":51799,"intl_designator":"2022-017AH","name":"STARLINK-3637","alt_names":[],"object_type":"PAYLOAD","status":"ACTIVE","operator":null,"country":"US","launch_date":"2022-02-25","launch_site_code":"AFWTR","launch_vehicle":null,"mission":null,"orbit_class":"UNKNOWN","rcs_meters":null,"size_class":null,"mass_kg":null,"dimensions":null,"purposes":["comms"],"wikipedia_slug":null,"has_3d_model":false,"image_url":null,"decayed_at":null,"tle_current":{"epoch":"2026-05-24T23:57:42.469344Z","epoch_age_seconds":72025,"freshness":"FRESH","line1":"1 51799U 22017AH  26144.99840821  .00000371  00000+0  41381-4 0  9992","line2":"2 51799  53.2151   6.5544 0001764  89.8137 270.3058 15.08840595235446","mean_motion":15.08840595,"eccentricity":0.0001764,"inclination_deg":53.2151,"raan_deg":6.5544,"arg_perigee_deg":89.8137,"mean_anomaly_deg":270.3058,"bstar":4.1381e-5,"rev_number":23544,"period_min":95.43751704268,"perigee_km":538.52125650794,"apogee_km":540.96188406753,"semimajor_km":6917.8785702877,"source":"CELESTRAK","updated_at":"2026-05-25T13:38:16.956142Z"}}}